Wind_Speed
30 30 30 30 31 31 31 30 28 28 27 26 26 25 24 23 22 22 22 23 24 26 27 28 29 30 31 31 32 32 33 33 34 35 36 37 37 39 39 38 36 35
31 31 32 32 33 33 33 32 30 29 28 27 27 26 25 23 23 23 24 25 27 28 29 30 30 31 32 32 32 33 34 34 35 36 37 38 39 40 40 37 36 35
32 33 33 33 34 34 33 32 31 30 29 28 27 26 25 24 24 24 26 27 29 30 30 31 32 32 32 32 33 34 34 34 35 37 38 40 42 42 40 37 36 36
32 33 33 34 35 34 33 32 31 30 29 28 27 27 26 25 25 26 27 29 30 31 32 32 33 33 32 33 33 34 34 35 36 38 40 43 43 42 39 37 36 36
32 33 34 34 35 34 33 32 31 30 29 28 28 27 27 26 27 28 29 31 32 33 33 33 33 33 33 33 33 34 35 36 37 40 43 45 44 41 38 37 36 36
32 33 34 34 34 34 34 33 32 31 30 29 29 28 28 28 28 30 32 33 34 34 34 34 33 33 34 34 34 35 36 37 39 43 45 45 43 41 38 37 37 36
31 32 34 34 35 35 34 33 32 31 31 30 30 30 29 30 31 32 33 34 35 35 35 34 34 34 34 34 35 36 36 38 42 45 46 45 43 40 38 37 37 36
31 32 34 34 35 35 34 34 33 32 32 32 31 31 31 31 32 34 35 35 36 36 35 35 35 35 35 35 35 36 37 40 43 46 46 45 42 40 39 37 37 36
31 33 34 35 35 35 35 34 34 33 33 33 32 32 32 33 34 35 36 36 36 36 36 36 36 35 35 35 36 36 37 40 43 45 46 44 42 40 38 37 36 35
32 33 34 35 35 35 35 35 35 35 34 34 34 34 34 35 36 37 37 37 37 37 37 37 36 36 35 36 36 37 38 40 42 44 44 42 41 39 37 35 34 33
32 33 34 35 35 36 36 36 36 36 36 36 36 36 36 37 37 37 37 37 38 38 39 38 37 36 36 37 37 38 38 39 40 40 41 40 39 38 35 34 33 33
32 33 34 35 36 36 37 37 38 38 37 37 38 38 38 38 38 38 38 38 39 40 40 39 37 37 37 38 38 39 39 38 37 37 39 39 37 36 34 33 32 32
31 33 34 35 36 37 38 39 39 39 39 39 39 40 40 39 38 38 39 40 41 41 41 39 38 38 38 39 39 39 39 38 36 36 37 37 36 35 33 32 32 32
30 32 34 35 37 39 39 40 40 40 40 41 41 41 41 40 39 39 41 42 43 42 41 40 39 39 39 39 40 40 40 38 36 35 36 35 35 34 32 31 31 32
31 32 34 36 38 39 40 41 41 41 42 42 43 42 41 41 41 42 43 44 43 43 42 41 40 40 40 40 40 40 40 39 36 35 35 34 34 33 32 31 31 31
31 32 34 36 38 39 41 42 42 43 43 44 44 43 42 42 43 44 45 44 44 43 42 42 41 40 41 41 41 41 40 38 36 35 34 34 34 32 31 31 31 31
31 32 34 36 38 40 41 42 42 44 44 45 44 44 44 45 45 45 45 44 44 43 42 42 41 41 42 41 41 41 39 37 36 36 35 34 33 32 31 31 32 32
32 33 35 37 39 40 41 42 43 45 45 45 45 45 46 46 46 45 45 44 44 44 43 42 42 42 43 42 41 41 38 37 37 36 34 33 33 32 31 32 32 33
34 35 36 36 38 39 41 42 44 46 46 46 46 46 47 47 46 46 45 45 45 45 43 43 43 44 43 42 41 40 38 37 37 35 34 34 34 33 31 32 33 34
35 36 36 36 37 38 40 43 45 47 47 46 46 47 48 47 47 47 46 46 45 44 44 44 45 44 43 41 41 39 37 38 37 35 34 35 35 34 33 33 35 35
35 35 34 35 36 38 41 45 46 46 45 46 47 48 48 48 48 47 47 46 46 45 45 46 45 43 42 41 40 38 38 38 36 35 36 37 36 34 33 34 36 36
34 32 32 34 36 39 43 45 44 43 44 45 47 48 49 49 49 48 48 47 46 46 46 46 44 42 41 41 40 38 38 37 37 37 38 38 36 34 34 35 37 37
32 32 34 36 39 42 42 40 39 40 42 45 47 48 49 49 49 48 48 47 46 46 47 46 44 42 41 40 40 39 38 39 39 39 39 38 36 35 35 36 37 37
34 35 36 38 39 39 39 37 37 38 40 44 46 47 48 48 48 47 46 46 47 48 48 46 44 42 40 40 40 39 40 41 41 41 40 39 37 36 36 37 37 37
37 37 37 36 37 37 38 38 37 37 38 41 43 45 46 46 46 46 47 48 49 48 46 45 43 41 40 40 41 41 43 43 43 42 41 39 37 37 37 37 38 38
37 36 36 35 36 37 38 39 39 39 40 41 42 43 44 45 46 48 48 48 47 45 44 44 43 42 41 41 43 44 44 45 44 43 41 39 38 38 38 39 39 39
Wind_Direction
234 232 230 229 227 226 225 224 226 229 234 238 242 247 250 254 258 262 266 269 271 272 274 276 279 281 283 286 289 292 295 298 300 302 304 306 308 312 316 317 315 314
233 231 229 228 227 228 227 226 227 230 235 240 244 248 252 255 259 263 267 270 271 273 275 277 280 282 285 288 292 295 298 300 302 304 306 307 310 314 317 316 315 314
232 230 229 229 229 229 229 230 231 233 236 241 246 249 253 256 261 264 268 270 272 274 276 278 280 282 286 290 294 297 299 302 304 306 307 309 313 316 317 316 315 316
231 230 229 229 229 229 230 232 234 237 241 244 247 250 254 258 262 265 269 271 273 275 276 278 280 283 287 292 296 299 302 304 306 307 309 312 315 318 318 317 317 317
230 230 229 229 229 230 232 234 236 239 242 245 248 251 255 259 263 266 269 271 273 275 276 278 280 284 289 293 297 301 303 305 307 310 312 314 317 319 319 318 318 319
230 230 230 230 231 233 235 236 238 239 242 245 248 252 256 260 263 267 269 271 273 275 276 278 281 285 290 294 298 302 304 307 309 312 314 316 318 320 320 319 319 319
232 231 231 232 233 235 236 237 238 240 242 245 249 253 256 260 264 267 269 271 273 275 277 279 283 286 290 294 298 302 304 307 310 312 314 317 319 320 320 319 319 318
233 233 234 235 236 237 238 239 240 242 244 246 250 254 257 261 264 267 269 271 273 276 278 281 284 287 291 294 298 301 303 306 308 311 314 317 318 319 319 318 317 316
236 236 236 237 238 239 240 242 243 244 246 248 251 254 257 261 264 267 269 272 274 277 279 281 284 287 291 294 297 299 301 304 306 309 312 315 316 317 316 316 315 314
239 239 239 240 241 242 243 244 245 246 247 249 251 254 258 261 264 267 270 273 276 278 279 281 283 287 290 293 295 297 299 301 304 307 310 312 314 314 314 313 312 312
242 242 243 243 244 245 246 246 246 247 248 250 252 255 258 261 264 268 271 274 276 277 279 280 283 287 290 293 294 294 295 297 300 303 307 310 311 311 312 311 310 310
244 245 246 246 247 247 248 248 248 249 249 251 253 255 258 261 265 268 272 274 276 277 279 281 283 286 290 292 293 292 292 294 297 300 305 307 309 310 310 309 308 308
246 247 248 248 249 249 249 250 250 250 251 252 254 256 259 262 266 269 272 274 275 277 278 280 283 287 290 292 291 290 291 293 295 299 303 305 307 309 308 306 306 306
247 248 249 249 250 250 250 251 251 252 253 254 255 257 260 263 267 270 272 274 275 277 278 281 284 287 289 290 289 288 290 291 293 297 301 303 306 307 306 304 303 303
245 247 249 250 251 252 252 253 253 253 254 255 257 259 262 265 268 270 272 274 275 277 279 282 284 287 288 288 287 288 289 290 291 295 298 301 304 304 302 300 300 300
242 245 249 250 252 253 254 254 255 255 256 257 258 261 264 266 269 271 273 274 275 277 279 282 284 286 286 286 287 287 288 288 289 293 297 299 301 300 298 297 297 297
241 244 247 249 252 253 255 256 257 257 258 259 260 263 265 267 270 271 273 274 276 278 279 281 283 285 285 286 287 287 287 287 288 292 295 297 298 296 294 294 294 294
241 243 245 248 250 253 255 257 258 258 259 260 262 265 267 269 270 271 273 274 276 277 278 280 283 285 285 286 286 286 286 286 288 291 293 294 295 293 291 291 291 291
241 243 245 247 249 252 255 257 258 259 260 262 264 266 267 268 269 271 273 274 276 277 278 279 282 284 285 285 286 286 285 285 287 289 290 290 291 291 289 289 289 289
243 245 246 248 250 252 255 256 257 259 261 262 264 265 266 268 270 272 273 274 276 277 276 279 283 284 284 285 285 285 284 285 286 287 287 288 288 287 287 288 288 288
245 246 248 250 253 254 255 255 256 258 261 263 264 265 267 269 270 271 272 274 275 275 276 280 283 282 283 284 284 283 283 284 285 285 285 286 285 284 285 286 287 288
243 246 250 253 254 254 254 254 256 260 262 264 264 265 266 268 269 270 273 275 274 274 277 280 280 280 281 282 282 282 283 284 283 283 283 284 284 283 284 284 286 288
243 246 249 251 251 252 253 254 258 262 264 264 264 265 266 268 269 272 273 273 272 274 277 278 277 279 280 281 281 282 282 281 281 281 281 282 282 281 281 283 285 288
243 245 248 251 253 254 254 255 258 260 262 263 264 265 266 267 268 269 269 270 271 273 275 276 277 278 279 280 281 280 279 279 279 279 279 280 280 279 281 283 285 286
247 250 254 257 259 260 259 258 256 255 257 259 260 262 264 264 265 265 266 268 270 272 274 276 277 277 278 278 278 277 277 277 277 278 279 279 278 279 280 282 283 284
257 260 262 263 264 263 261 257 253 250 249 250 253 257 259 260 261 263 265 268 271 273 275 276 277 277 276 276 275 275 275 275 276 278 279 279 278 278 279 280 281 283
Height
3129 3131 3132 3133 3134 3136 3137 3138 3139 3140 3140 3141 3142 3142 3142 3142 3143 3143 3143 3143 3143 3143 3143 3143 3143 3142 3142 3141 3141 3140 3139 3138 3137 3136 3134 3133 3132 3130 3129 3128 3126 3125
3126 3127 3129 3130 3131 3132 3133 3135 3136 3137 3138 3138 3139 3139 3139 3140 3140 3140 3140 3140 3140 3140 3140 3140 3139 3139 3138 3138 3137 3136 3135 3134 3132 3131 3130 3128 3127 3126 3125 3124 3122 3120
3123 3124 3125 3127 3128 3130 3131 3132 3133 3133 3134 3135 3136 3136 3136 3137 3137 3137 3137 3137 3137 3137 3137 3136 3136 3135 3135 3134 3133 3131 3130 3129 3128 3126 3125 3124 3123 3122 3120 3119 3117 3116
3119 3121 3123 3124 3126 3127 3128 3129 3130 3131 3131 3132 3133 3133 3133 3133 3134 3134 3134 3134 3134 3133 3133 3133 3132 3131 3130 3129 3128 3127 3126 3124 3123 3122 3121 3120 3118 3117 3116 3114 3113 3111
3117 3118 3120 3121 3123 3124 3125 3126 3127 3128 3128 3129 3129 3130 3130 3130 3130 3130 3130 3130 3130 3130 3129 3129 3128 3127 3126 3125 3123 3122 3121 3120 3119 3117 3116 3115 3114 3113 3111 3110 3108 3106
3114 3115 3117 3118 3120 3121 3122 3123 3124 3124 3125 3126 3126 3127 3127 3127 3127 3127 3127 3127 3127 3126 3126 3125 3124 3123 3122 3120 3119 3118 3117 3115 3114 3113 3112 3111 3110 3108 3107 3105 3103 3102
3111 3113 3114 3115 3116 3117 3118 3119 3120 3121 3122 3122 3123 3123 3123 3123 3123 3123 3123 3123 3123 3122 3122 3121 3120 3119 3117 3116 3115 3113 3112 3111 3109 3108 3108 3107 3105 3103 3102 3100 3099 3097
3108 3109 3111 3112 3113 3114 3115 3115 3116 3117 3118 3118 3119 3119 3120 3120 3119 3120 3120 3119 3119 3118 3118 3117 3116 3114 3113 3112 3110 3109 3107 3106 3105 3104 3103 3102 3100 3099 3097 3096 3095 3093
3105 3106 3107 3108 3109 3110 3111 3112 3113 3113 3114 3115 3115 3115 3115 3115 3115 3116 3116 3116 3115 3114 3113 3112 3111 3110 3109 3107 3106 3104 3103 3101 3100 3099 3098 3097 3096 3094 3093 3092 3091 3089
3101 3102 3103 3104 3106 3107 3107 3108 3109 3109 3110 3111 3111 3111 3111 3111 3111 3112 3112 3112 3111 3110 3109 3108 3107 3106 3104 3103 3102 3100 3099 3097 3095 3094 3094 3093 3091 3089 3088 3087 3086 3085
3098 3099 3100 3101 3102 3103 3104 3104 3105 3105 3106 3106 3107 3107 3107 3107 3107 3108 3108 3108 3107 3106 3104 3103 3102 3101 3100 3099 3097 3096 3095 3093 3091 3090 3089 3088 3086 3085 3084 3083 3082 3081
3095 3096 3097 3097 3098 3099 3100 3100 3101 3101 3102 3102 3102 3102 3103 3103 3104 3104 3104 3103 3102 3101 3100 3099 3098 3097 3096 3094 3093 3092 3091 3089 3087 3085 3084 3083 3082 3080 3079 3078 3077 3076
3092 3092 3093 3094 3095 3095 3096 3096 3097 3097 3098 3098 3098 3098 3099 3099 3100 3100 3100 3099 3097 3096 3095 3094 3093 3092 3091 3090 3089 3088 3087 3085 3083 3081 3080 3079 3077 3076 3075 3074 3073 3072
3088 3089 3089 3090 3091 3091 3092 3092 3093 3093 3093 3094 3094 3094 3095 3095 3096 3096 3095 3094 3093 3092 3091 3090 3089 3088 3087 3085 3084 3083 3082 3081 3079 3077 3075 3074 3073 3072 3071 3070 3069 3068
3083 3084 3085 3086 3086 3087 3087 3088 3088 3089 3089 3089 3089 3090 3091 3091 3091 3091 3090 3089 3088 3087 3086 3085 3084 3083 3082 3080 3080 3079 3078 3076 3075 3073 3072 3070 3069 3068 3067 3066 3065 3064
3078 3080 3081 3081 3082 3083 3083 3083 3084 3085 3085 3085 3086 3086 3087 3087 3086 3085 3085 3085 3084 3083 3082 3081 3080 3078 3077 3076 3075 3074 3073 3072 3070 3069 3068 3066 3065 3064 3063 3062 3062 3060
3073 3074 3075 3076 3077 3078 3079 3079 3080 3080 3080 3081 3081 3082 3082 3081 3081 3081 3080 3080 3079 3078 3077 3076 3075 3073 3072 3071 3070 3069 3069 3067 3066 3065 3064 3062 3061 3060 3059 3058 3058 3056
3068 3069 3070 3071 3072 3074 3074 3075 3076 3076 3076 3077 3077 3077 3077 3076 3076 3076 3076 3075 3074 3073 3072 3071 3070 3068 3067 3066 3065 3065 3064 3063 3062 3061 3060 3058 3057 3056 3055 3055 3054 3052
3064 3064 3065 3066 3068 3069 3070 3071 3071 3071 3071 3072 3072 3072 3071 3071 3071 3072 3071 3070 3070 3069 3068 3066 3065 3063 3062 3061 3060 3059 3059 3058 3057 3057 3055 3054 3053 3052 3051 3051 3050 3048
3059 3060 3061 3062 3063 3065 3065 3066 3066 3066 3066 3066 3067 3067 3066 3067 3067 3067 3066 3066 3065 3064 3063 3061 3060 3058 3057 3056 3055 3054 3054 3053 3053 3052 3051 3050 3049 3048 3047 3046 3045 3044
3055 3056 3057 3058 3059 3060 3060 3060 3060 3060 3060 3061 3061 3062 3062 3063 3062 3062 3061 3061 3060 3059 3057 3056 3055 3053 3052 3051 3050 3049 3048 3048 3047 3047 3046 3046 3044 3043 3043 3042 3040 3039
3050 3051 3052 3054 3054 3054 3054 3054 3054 3054 3055 3055 3057 3058 3058 3058 3057 3057 3056 3055 3054 3053 3052 3051 3050 3048 3046 3045 3045 3044 3043 3043 3043 3042 3041 3041 3040 3039 3038 3037 3035 3034
3045 3046 3047 3047 3048 3048 3048 3048 3048 3049 3049 3050 3052 3053 3053 3052 3052 3052 3051 3050 3048 3047 3046 3045 3044 3043 3041 3040 3039 3039 3038 3038 3038 3038 3037 3036 3035 3034 3033 3032 3031 3030
3039 3039 3040 3040 3040 3041 3041 3042 3042 3042 3043 3045 3046 3047 3047 3047 3047 3046 3045 3043 3042 3041 3040 3039 3039 3038 3036 3035 3034 3034 3033 3033 3033 3033 3032 3031 3030 3030 3029 3027 3026 3025
3032 3033 3033 3034 3034 3035 3035 3035 3035 3036 3037 3038 3039 3040 3041 3041 3040 3039 3038 3038 3037 3036 3035 3034 3033 3033 3032 3030 3030 3029 3028 3028 3028 3027 3027 3026 3026 3025 3024 3022 3021 3020
3028 3028 3028 3029 3029 3029 3029 3029 3028 3029 3029 3031 3032 3033 3034 3034 3033 3033 3033 3032 3031 3030 3029 3029 3028 3028 3027 3026 3025 3024 3023 3022 3022 3021 3021 3021 3021 3020 3018 3017 3016 3015